This demonstration page uses our WeatherBlox Daily Observations layout. Learn more.

41.55636, -103.73856

Hourly Observations for August 13, 2019

Temp ( °F °C ) Dew Point ( °F °C ) Humidity (%) Winds ( mph kmh ) Pressure ( in mb ) Visibility ( mi km ) Precip ( " mm )
12:53 am 00:53 Clear 64 17.8 60 15.6 87 87 E 7 11 29.97 1015 10 16.09344 0 0
1:53 am 01:53 Clear 64 17.8 60 15.6 87 87 E 7 11 29.97 1015 10 16.09344 0 0
2:53 am 02:53 Clear 62 16.7 59 15 90 90 ENE 6 9 29.97 1015 10 16.09344 0 0
3:53 am 03:53 Clear 62 16.7 60 15.6 93 93 E 6 9 29.97 1015 10 16.09344 0 0
4:53 am 04:53 Clear 61 16.1 60 15.6 97 97 ESE 8 13 29.97 1015 10 16.09344 0 0
5:53 am 05:53 Clear 58 14.4 57 13.9 97 97 W 3 6 30 1016 10 16.09344 0 0
6:53 am 06:53 Sunny 61 16.1 60 15.6 97 97 NNE 5 7 30 1016 9 14.484096 0 0
7:51 am 07:51 Partly Cloudy 66 19 63 17 88 88 Calm 29.97 1015 10 16.09344 0 0
7:53 am 07:53 Partly Cloudy 66 18.9 62 16.7 87 87 Calm 30.03 1017 10 16.09344 0 0
8:00 am 08:00 Mostly Cloudy 64 18 63 17 94 94 Calm 29.97 1015 10 16.09344 0 0
8:53 am 08:53 Cloudy 64 17.8 56 13.3 75 75 WNW 9 15 30.06 1018 10 16.09344 0 0
9:14 am 09:14 Cloudy 67 19.4 56 13.3 68 68 WSW 7 11 29.97 1015 10 16.09344 0 0
9:28 am 09:28 Partly Cloudy 70 21 55 13 60 60 W 7 11 29.97 1015 10 16.09344 0 0
9:53 am 09:53 Sunny 72 22.2 60 15.6 66 66 VRB 5 7 30.06 1018 10 16.09344 0 0
10:24 am 10:24 Mostly Cloudy 72 22 61 16 69 69 VRB 3 6 29.97 1015 10 16.09344 0 0
10:53 am 10:53 Mostly Cloudy 74 23.3 63 17.2 69 69 NNE 6 9 30.06 1018 10 16.09344 0 0
11:53 am 11:53 Mostly Cloudy 72 22.2 63 17.2 73 73 ENE 15 24 30.09 1019 10 16.09344 0 0
12:53 pm 12:53 Partly Cloudy 75 23.9 61 16.1 62 62 VRB 7 11 30.06 1018 10 16.09344 0 0
1:53 pm 13:53 Mostly Sunny 80 26.7 60 15.6 51 51 VRB 5 7 30.06 1018 10 16.09344 0 0
2:53 pm 14:53 Mostly Cloudy 80 26.7 60 15.6 51 51 ENE 10 17 30.03 1017 10 16.09344 0 0
3:53 pm 15:53 Mostly Sunny 81 27.2 59 15 47 47 E 9 15 30.03 1017 10 16.09344 0 0
4:53 pm 16:53 Sunny 81 27.2 59 15 47 47 ENE 14 22 30.03 1017 10 16.09344 0 0
5:53 pm 17:53 Sunny 79 26.1 57 13.9 47 47 ENE 15 24 30.03 1017 10 16.09344 0 0
6:53 pm 18:53 Sunny 77 25 58 14.4 52 52 ENE 9 15 30.03 1017 10 16.09344 0 0
7:53 pm 19:53 Sunny 69 20.6 60 15.6 73 73 ENE 6 9 30.06 1018 10 16.09344 0 0
8:53 pm 20:53 Clear 66 18.9 58 14.4 75 75 E 7 11 30.09 1019 10 16.09344 0 0
9:53 pm 21:53 Clear 64 17.8 60 15.6 87 87 ESE 7 11 30.12 1020 10 16.09344 0 0
10:53 pm 22:53 Clear 62 16.7 60 15.6 93 93 ESE 6 9 30.12 1020 10 16.09344 0 0
11:53 pm 23:53 Clear 61 16.1 59 15 93 93 ESE 7 11 30.15 1021 10 16.09344 0 0

Powered by AerisWeather